When you browse on this site, cookies collect data to enhance your experience and personalize the content and advertising you see.
Visit our Privacy Policy to learn more. By continuing to use the site, you agree to this use of cookies and data.
  • In France
  • List of Countries
  • For 7 days
  • Water Temperature
  • Satellite Maps
  • Weather Map
  • Weather Widgets
  • user-avatar
    Login

    Hourly Weather Saurimo

    Today, 23 January, Wednesday

    Time Temperature Precipitation Wind Pressure Humidity
    00:00 +20°C° 0 mm 1 mps 670 mmHg 95%
    01:00 +21°C° 0 mm 1 mps 670 mmHg 95%
    02:00 +20°C° 0 mm 1 mps 670 mmHg 95%
    03:00 +20°C° 0 mm 1 mps 670 mmHg 96%
    04:00 +20°C° 0 mm 1 mps 670 mmHg 96%
    05:00 +20°C° 0 mm 1 mps 670 mmHg 95%
    06:00 +21°C° 0 mm 1 mps 670 mmHg 94%
    07:00 +21°C° 0 mm 1 mps 671 mmHg 93%
    08:00 +22°C° 0.2 mm 1 mps 671 mmHg 91%
    09:00 +23°C° 0.2 mm 2 mps 671 mmHg 89%
    10:00 +23°C° 0.2 mm 2 mps 671 mmHg 86%
    11:00 +25°C° 0.9 mm 2 mps 671 mmHg 83%
    12:00 +26°C° 0.9 mm 3 mps 670 mmHg 80%
    13:00 +27°C° 0.9 mm 3 mps 670 mmHg 77%
    14:00 +26°C° 1.3 mm 3 mps 670 mmHg 80%
    15:00 +26°C° 1.3 mm 3 mps 669 mmHg 83%
    16:00 +25°C° 1.3 mm 3 mps 669 mmHg 87%
    17:00 +24°C° 0.7 mm 3 mps 669 mmHg 89%
    18:00 +23°C° 0.7 mm 2 mps 669 mmHg 92%
    19:00 +20°C° 0.7 mm 2 mps 669 mmHg 95%
    20:00 +20°C° 0 mm 2 mps 669 mmHg 96%
    21:00 +21°C° 0 mm 1 mps 670 mmHg 96%
    22:00 +20°C° 0 mm 1 mps 671 mmHg 97%
    23:00 +20°C° 0 mm 1 mps 670 mmHg 97%

    Tomorrow, 24 January, Thursday

    Time Temperature Precipitation Wind Pressure Humidity
    00:00 +20°C° 0 mm 1 mps 670 mmHg 97%
    01:00 +20°C° 0 mm 1 mps 670 mmHg 97%
    02:00 +20°C° 0.1 mm 1 mps 670 mmHg 97%
    03:00 +20°C° 0.1 mm 1 mps 669 mmHg 98%
    04:00 +20°C° 0.1 mm 1 mps 669 mmHg 98%
    05:00 +20°C° 0.1 mm 1 mps 670 mmHg 97%
    06:00 +21°C° 0.1 mm 1 mps 670 mmHg 97%
    07:00 +21°C° 0.1 mm 1 mps 671 mmHg 96%
    08:00 +22°C° 0.1 mm 1 mps 671 mmHg 91%
    09:00 +23°C° 0.1 mm 1 mps 671 mmHg 86%
    10:00 +25°C° 0.1 mm 1 mps 672 mmHg 82%
    11:00 +25°C° 1.1 mm 2 mps 671 mmHg 80%
    12:00 +26°C° 1.1 mm 2 mps 670 mmHg 79%
    13:00 +26°C° 1.1 mm 2 mps 670 mmHg 77%
    14:00 +26°C° 1.6 mm 2 mps 669 mmHg 80%
    15:00 +26°C° 1.6 mm 2 mps 669 mmHg 82%
    16:00 +25°C° 1.6 mm 1 mps 668 mmHg 84%
    17:00 +24°C° 0.6 mm 1 mps 668 mmHg 87%
    18:00 +23°C° 0.6 mm 1 mps 668 mmHg 89%
    19:00 +20°C° 0.6 mm 0 mps 669 mmHg 91%
    20:00 +19°C° 0 mm 0 mps 669 mmHg 92%
    21:00 +19°C° 0 mm 0 mps 670 mmHg 93%
    22:00 +19°C° 0 mm 0 mps 670 mmHg 94%
    23:00 +19°C° 0 mm 0 mps 670 mmHg 94%

    Day after tomorrow, 25 January, Friday

    Time Temperature Precipitation Wind Pressure Humidity
    00:00 +19°C° 0 mm 0 mps 669 mmHg 94%
    01:00 +19°C° 0 mm 0 mps 669 mmHg 94%
    02:00 +18°C° 0 mm 0 mps 669 mmHg 95%
    03:00 +18°C° 0 mm 0 mps 669 mmHg 95%
    04:00 +18°C° 0 mm 0 mps 668 mmHg 96%
    05:00 +18°C° 0 mm 0 mps 669 mmHg 95%
    06:00 +19°C° 0 mm 0 mps 670 mmHg 94%
    07:00 +20°C° 0 mm 0 mps 671 mmHg 93%
    08:00 +21°C° 0.6 mm 0 mps 671 mmHg 88%
    09:00 +25°C° 0.6 mm 1 mps 672 mmHg 84%
    10:00 +27°C° 0.6 mm 1 mps 672 mmHg 79%
    11:00 +28°C° 0.5 mm 2 mps 672 mmHg 72%
    12:00 +29°C° 0.5 mm 2 mps 671 mmHg 64%
    13:00 +30°C° 0.5 mm 2 mps 671 mmHg 57%
    14:00 +29°C° 1.2 mm 2 mps 670 mmHg 64%
    15:00 +28°C° 1.2 mm 2 mps 670 mmHg 71%
    16:00 +27°C° 1.2 mm 2 mps 669 mmHg 78%
    17:00 +25°C° 1.1 mm 1 mps 669 mmHg 83%
    18:00 +24°C° 1.1 mm 1 mps 670 mmHg 88%
    19:00 +22°C° 1.1 mm 1 mps 670 mmHg 92%
    20:00 +22°C° 0.3 mm 1 mps 671 mmHg 93%
    21:00 +21°C° 0.3 mm 1 mps 671 mmHg 93%
    22:00 +21°C° 0.3 mm 1 mps 672 mmHg 94%
    23:00 +21°C° 0.5 mm 1 mps 671 mmHg 95%

    26 January, Saturday

    Time Temperature Precipitation Wind Pressure Humidity
    00:00 +19°C° 0.5 mm 0 mps 671 mmHg 95%
    01:00 +19°C° 0.5 mm 0 mps 670 mmHg 96%
    02:00 +19°C° 0.3 mm 0 mps 670 mmHg 96%
    03:00 +19°C° 0.3 mm 0 mps 670 mmHg 95%
    04:00 +18°C° 0.3 mm 0 mps 670 mmHg 95%
    05:00 +19°C° 0.2 mm 0 mps 670 mmHg 95%
    06:00 +19°C° 0.2 mm 0 mps 671 mmHg 94%
    07:00 +19°C° 0.2 mm 0 mps 671 mmHg 93%
    08:00 +22°C° 0.3 mm 1 mps 671 mmHg 89%
    09:00 +23°C° 0.3 mm 1 mps 672 mmHg 86%
    10:00 +24°C° 0.3 mm 2 mps 672 mmHg 82%
    11:00 +25°C° 0.1 mm 2 mps 671 mmHg 76%
    12:00 +26°C° 0.1 mm 2 mps 671 mmHg 70%
    13:00 +27°C° 0.1 mm 2 mps 670 mmHg 64%
    14:00 +28°C° 0 mm 2 mps 670 mmHg 62%
    15:00 +28°C° 0 mm 2 mps 670 mmHg 60%
    16:00 +29°C° 0 mm 2 mps 670 mmHg 57%
    17:00 +27°C° 0 mm 1 mps 670 mmHg 64%
    18:00 +25°C° 0 mm 1 mps 670 mmHg 71%
    19:00 +23°C° 0 mm 1 mps 670 mmHg 78%
    20:00 +23°C° 0 mm 1 mps 670 mmHg 80%
    21:00 +22°C° 0 mm 1 mps 671 mmHg 81%
    22:00 +22°C° 0 mm 1 mps 671 mmHg 83%
    23:00 +21°C° 0 mm 1 mps 671 mmHg 84%

    27 January, Sunday

    Time Temperature Precipitation Wind Pressure Humidity
    00:00 +21°C° 0 mm 1 mps 670 mmHg 86%
    01:00 +21°C° 0 mm 1 mps 670 mmHg 87%
    02:00 +21°C° 0 mm 1 mps 669 mmHg 88%
    03:00 +20°C° 0 mm 1 mps 669 mmHg 88%
    04:00 +20°C° 0 mm 1 mps 669 mmHg 88%
    05:00 +21°C° 0 mm 1 mps 670 mmHg 87%
    06:00 +21°C° 0 mm 1 mps 670 mmHg 85%
    07:00 +20°C° 0 mm 0 mps 671 mmHg 83%
    08:00 +24°C° 0 mm 1 mps 671 mmHg 74%
    09:00 +27°C° 0 mm 1 mps 672 mmHg 65%
    10:00 +29°C° 0 mm 1 mps 672 mmHg 56%
    11:00 +30°C° 0 mm 1 mps 672 mmHg 52%
    12:00 +31°C° 0 mm 2 mps 671 mmHg 48%
    13:00 +32°C° 0 mm 2 mps 671 mmHg 44%
    14:00 +32°C° 0 mm 1 mps 670 mmHg 46%
    15:00 +32°C° 0 mm 1 mps 670 mmHg 49%
    16:00 +32°C° 0 mm 1 mps 669 mmHg 51%
    17:00 +29°C° 0 mm 1 mps 669 mmHg 56%
    18:00 +27°C° 0 mm 1 mps 669 mmHg 62%
    19:00 +25°C° 0 mm 1 mps 669 mmHg 67%
    20:00 +25°C° 0 mm 1 mps 670 mmHg 68%
    21:00 +24°C° 0 mm 1 mps 670 mmHg 69%
    22:00 +24°C° 0 mm 1 mps 670 mmHg 70%
    23:00 +23°C° 0.1 mm 1 mps 670 mmHg 76%

    28 January, Monday

    Time Temperature Precipitation Wind Pressure Humidity
    00:00 +20°C° 0.1 mm 0 mps 670 mmHg 81%
    01:00 +19°C° 0.1 mm 0 mps 669 mmHg 87%
    02:00 +19°C° 0 mm 0 mps 669 mmHg 88%
    03:00 +19°C° 0 mm 0 mps 669 mmHg 89%
    04:00 +19°C° 0 mm 0 mps 669 mmHg 90%
    05:00 +19°C° 0.1 mm 0 mps 669 mmHg 89%
    06:00 +20°C° 0.1 mm 0 mps 670 mmHg 89%
    07:00 +20°C° 0.1 mm 0 mps 671 mmHg 88%
    08:00 +23°C° 0 mm 0 mps 671 mmHg 78%
    09:00 +26°C° 0 mm 0 mps 672 mmHg 69%
    10:00 +29°C° 0 mm 0 mps 673 mmHg 59%
    11:00 +31°C° 0.3 mm 1 mps 672 mmHg 56%
    12:00 +32°C° 0.3 mm 1 mps 671 mmHg 53%
    13:00 +32°C° 0.3 mm 1 mps 670 mmHg 51%
    14:00 +31°C° 0 mm 1 mps 670 mmHg 55%
    15:00 +30°C° 0 mm 1 mps 669 mmHg 59%
    16:00 +29°C° 0 mm 1 mps 669 mmHg 63%
    17:00 +28°C° 0.1 mm 2 mps 669 mmHg 70%
    18:00 +26°C° 0.1 mm 2 mps 669 mmHg 77%
    19:00 +24°C° 0.1 mm 2 mps 670 mmHg 83%
    20:00 +23°C° 0.5 mm 2 mps 670 mmHg 87%
    21:00 +22°C° 0.5 mm 1 mps 670 mmHg 91%
    22:00 +22°C° 0.5 mm 1 mps 670 mmHg 95%
    23:00 +21°C° 0.2 mm 1 mps 669 mmHg 95%
    Show more